| time (UTC) | temp C | wind direction | speed KPH | gust KPH | rain 1hr cm | rain 24hr cm | rain mn cm | humidity % | barometer mb |
| 20260507034533 | 2 | 10 | 3.2 | 6.4 | 0.00 | 0.41 | 0.41 | 90 | 1013.0 |
| 20260507033037 | 2 | 315 | 3.2 | 9.7 | 0.00 | 0.41 | 0.41 | 90 | 1013.0 |
| 20260507031531 | 2 | 326 | 4.8 | 11.3 | 0.00 | 0.41 | 0.41 | 90 | 1012.9 |
| 20260507030030 | 2 | 315 | 6.4 | 12.9 | 0.05 | 0.41 | 0.41 | 90 | 1012.9 |
| 20260507024533 | 2 | 344 | 4.8 | 8.0 | 0.05 | 0.41 | 0.41 | 91 | 1012.9 |
| 20260507023034 | 2 | 335 | 6.4 | 11.3 | 0.10 | 0.41 | 0.41 | 91 | 1012.8 |
| 20260507021534 | 2 | 13 | 6.4 | 11.3 | 0.15 | 0.41 | 0.41 | 90 | 1012.7 |
| 20260507020031 | 2 | 39 | 3.2 | 4.8 | 0.13 | 0.36 | 0.36 | 91 | 1012.6 |
| 20260507014543 | 2 | 256 | 3.2 | 3.2 | 0.13 | 0.36 | 0.36 | 90 | 1012.6 |
| 20260507013031 | 2 | 207 | 6.4 | 17.7 | 0.08 | 0.30 | 0.30 | 88 | 1012.7 |
| 20260507011533 | 3 | 245 | 0.0 | 11.3 | 0.03 | 0.25 | 0.25 | 86 | 1012.6 |
| 20260507010035 | 4 | 248 | 1.6 | 6.4 | 0.00 | 0.23 | 0.23 | 83 | 1012.3 |
| 20260507004532 | 5 | 146 | 0.0 | 8.0 | 0.10 | 0.23 | 0.23 | 80 | 1012.2 |
| 20260507003033 | 4 | 0 | 3.2 | 8.0 | 0.10 | 0.23 | 0.23 | 85 | 1012.2 |
| 20260507001532 | 4 | 169 | 1.6 | 12.9 | 0.13 | 0.23 | 0.23 | 87 | 1012.2 |
| 20260507000038 | 3 | 153 | 4.8 | 17.7 | 0.13 | 0.23 | 0.23 | 87 | 1012.3 |
| 20260506234532 | 4 | 138 | 4.8 | 9.7 | 0.05 | 0.13 | 0.13 | 85 | 1011.9 |
| 20260506233035 | 4 | 227 | 0.0 | 3.2 | 0.05 | 0.13 | 0.13 | 84 | 1011.8 |
| 20260506231531 | 4 | 325 | 3.2 | 8.0 | 0.05 | 0.10 | 0.10 | 84 | 1011.6 |
| 20260506230034 | 4 | 15 | 6.4 | 9.7 | 0.10 | 0.10 | 0.10 | 85 | 1011.7 |
| 20260506224533 | 4 | 23 | 6.4 | 9.7 | 0.08 | 0.08 | 0.08 | 83 | 1011.6 |
| 20260506223032 | 5 | 343 | 1.6 | 8.0 | 0.08 | 0.08 | 0.08 | 81 | 1011.6 |
| 20260506221532 | 4 | 119 | 0.0 | 6.4 | 0.05 | 0.05 | 0.05 | 81 | 1011.5 |
| 20260506220033 | 4 | 333 | 4.8 | 12.9 | 0.00 | 0.00 | 0.00 | 80 | 1011.4 |
| 20260506214533 | 4 | 9 | 8.0 | 14.5 | 0.00 | 0.00 | 0.00 | 80 | 1011.2 |
| 20260506213033 | 4 | 24 | 9.7 | 14.5 | 0.00 | 0.00 | 0.00 | 80 | 1011.2 |
| 20260506211534 | 4 | 351 | 8.0 | 16.1 | 0.00 | 0.00 | 0.00 | 79 | 1011.1 |
| 20260506210032 | 4 | 22 | 11.3 | 19.3 | 0.00 | 0.00 | 0.00 | 79 | 1011.0 |
| 20260506204534 | 5 | 323 | 12.9 | 20.9 | 0.00 | 0.00 | 0.00 | 78 | 1010.8 |
| 20260506203030 | 5 | 300 | 1.6 | 6.4 | 0.00 | 0.00 | 0.00 | 76 | 1010.7 |
| 20260506201532 | 5 | 0 | 0.0 | 8.0 | 0.00 | 0.00 | 0.00 | 77 | 1010.7 |
| 20260506200031 | 4 | 18 | 3.2 | 8.0 | 0.00 | 0.00 | 0.00 | 78 | 1010.6 |
| 20260506194536 | 4 | 39 | 1.6 | 8.0 | 0.00 | 0.00 | 0.00 | 78 | 1010.5 |
| 20260506193032 | 4 | 57 | 1.6 | 9.7 | 0.00 | 0.00 | 0.00 | 80 | 1010.4 |
| 20260506191535 | 4 | 24 | 4.8 | 8.0 | 0.00 | 0.00 | 0.00 | 79 | 1010.3 |
| 20260506190032 | 3 | 239 | 3.2 | 6.4 | 0.00 | 0.00 | 0.00 | 79 | 1010.2 |
| 20260506184531 | 5 | 0 | 0.0 | 1.6 | 0.00 | 0.00 | 0.00 | 77 | 1010.3 |
| 20260506183029 | 4 | 232 | 1.6 | 3.2 | 0.00 | 0.00 | 0.00 | 76 | 1010.4 |
| 20260506181530 | 4 | 194 | 1.6 | 4.8 | 0.00 | 0.00 | 0.00 | 77 | 1010.2 |
| 20260506180034 | 5 | 146 | 0.0 | 3.2 | 0.00 | 0.00 | 0.00 | 76 | 1010.0 |
| 20260506174531 | 4 | 0 | 0.0 | 1.6 | 0.00 | 0.00 | 0.00 | 75 | 1010.1 |
| 20260506173035 | 3 | 0 | 1.6 | 4.8 | 0.00 | 0.00 | 0.00 | 76 | 1009.9 |
| 20260506171532 | 3 | 24 | 3.2 | 4.8 | 0.00 | 0.00 | 0.00 | 80 | 1009.8 |
| 20260506170030 | 3 | 0 | 0.0 | 0.0 | 0.00 | 0.00 | 0.00 | 80 | 1009.7 |
| 20260506164532 | 3 | 0 | 0.0 | 0.0 | 0.00 | 0.00 | 0.00 | 83 | 1009.6 |
| 20260506163053 | 2 | 322 | 1.6 | 3.2 | 0.00 | 0.00 | 0.00 | 83 | 1009.6 |
| 20260506161533 | 2 | 0 | 0.0 | 3.2 | 0.00 | 0.00 | 0.00 | 85 | 1009.5 |
| 20260506160032 | 2 | 74 | 0.0 | 3.2 | 0.00 | 0.00 | 0.00 | 88 | 1009.4 |
| 20260506154532 | 1 | 346 | 1.6 | 3.2 | 0.00 | 0.00 | 0.00 | 89 | 1009.4 |
| 20260506153031 | 1 | 50 | 1.6 | 1.6 | 0.00 | 0.00 | 0.00 | 90 | 1009.4 |
| 20260506151532 | 1 | 346 | 3.2 | 6.4 | 0.00 | 0.00 | 0.00 | 89 | 1009.3 |
| 20260506150030 | 1 | 344 | 3.2 | 8.0 | 0.00 | 0.00 | 0.00 | 90 | 1009.3 |
| 20260506144532 | 0 | 352 | 3.2 | 4.8 | 0.00 | 0.00 | 0.00 | 91 | 1009.1 |
| 20260506143040 | 0 | 344 | 4.8 | 6.4 | 0.00 | 0.00 | 0.00 | 92 | 1009.3 |
| 20260506141535 | 0 | 24 | 3.2 | 3.2 | 0.00 | 0.00 | 0.00 | 92 | 1009.2 |
| 20260506140032 | 0 | 49 | 1.6 | 3.2 | 0.00 | 0.00 | 0.00 | 91 | 1009.2 |
| 20260506134530 | 1 | 28 | 3.2 | 4.8 | 0.00 | 0.00 | 0.00 | 90 | 1009.3 |
| 20260506133030 | 0 | 321 | 1.6 | 4.8 | 0.00 | 0.00 | 0.00 | 91 | 1009.3 |
| 20260506131532 | 1 | 48 | 3.2 | 8.0 | 0.00 | 0.00 | 0.00 | 89 | 1009.1 |
| 20260506130031 | 0 | 25 | 4.8 | 6.4 | 0.00 | 0.00 | 0.00 | 90 | 1009.2 |
| 20260506124533 | 1 | 29 | 4.8 | 6.4 | 0.00 | 0.00 | 0.00 | 90 | 1009.2 |
| 20260506123035 | 1 | 334 | 3.2 | 3.2 | 0.00 | 0.00 | 0.00 | 88 | 1009.1 |
| 20260506121538 | 1 | 306 | 0.0 | 1.6 | 0.00 | 0.00 | 0.00 | 87 | 1009.2 |
| 20260506120030 | 1 | 46 | 0.0 | 6.4 | 0.00 | 0.00 | 0.00 | 87 | 1008.9 |
| 20260506114542 | 1 | 350 | 3.2 | 6.4 | 0.00 | 0.00 | 0.00 | 85 | 1008.9 |
| 20260506113034 | 2 | 348 | 4.8 | 6.4 | 0.00 | 0.00 | 0.00 | 83 | 1008.9 |
| 20260506111537 | 2 | 328 | 1.6 | 4.8 | 0.00 | 0.00 | 0.00 | 82 | 1008.7 |
| 20260506110033 | 2 | 18 | 3.2 | 4.8 | 0.00 | 0.00 | 0.00 | 82 | 1008.8 |
| 20260506104533 | 2 | 40 | 1.6 | 6.4 | 0.00 | 0.00 | 0.00 | 82 | 1008.7 |
| 20260506103032 | 2 | 301 | 4.8 | 6.4 | 0.00 | 0.00 | 0.00 | 80 | 1008.5 |
| 20260506101534 | 1 | 299 | 0.0 | 4.8 | 0.00 | 0.00 | 0.00 | 82 | 1008.7 |
| 20260506100031 | 2 | 36 | 0.0 | 3.2 | 0.00 | 0.00 | 0.00 | 81 | 1008.3 |
| 20260506094530 | 2 | 38 | 3.2 | 8.0 | 0.00 | 0.00 | 0.00 | 79 | 1008.2 |
| 20260506093032 | 2 | 15 | 6.4 | 8.0 | 0.00 | 0.00 | 0.00 | 82 | 1008.3 |
| 20260506091532 | 2 | 286 | 3.2 | 4.8 | 0.00 | 0.00 | 0.00 | 78 | 1008.1 |
| 20260506090032 | 2 | 30 | 4.8 | 4.8 | 0.00 | 0.00 | 0.00 | 81 | 1008.0 |
| 20260506084529 | 2 | 335 | 4.8 | 6.4 | 0.00 | 0.00 | 0.00 | 81 | 1007.9 |
| 20260506083032 | 2 | 0 | 0.0 | 4.8 | 0.00 | 0.00 | 0.00 | 80 | 1007.9 |
| 20260506081535 | 2 | 292 | 0.0 | 3.2 | 0.00 | 0.00 | 0.00 | 82 | 1007.8 |
| 20260506073030 | 2 | 32 | 4.8 | 6.4 | 0.00 | 0.00 | 0.00 | 82 | 1007.3 |
| 20260506071535 | 2 | 313 | 4.8 | 8.0 | 0.00 | 0.00 | 0.00 | 80 | 1007.2 |
| 20260506061535 | 3 | 324 | 3.2 | 4.8 | 0.00 | 0.00 | 0.00 | 76 | 1006.8 |
| 20260506044542 | 5 | 45 | 3.2 | 6.4 | 0.00 | 0.00 | 0.00 | 69 | 1006.0 |
| 20260506043032 | 5 | 308 | 3.2 | 12.9 | 0.00 | 0.00 | 0.00 | 69 | 1005.8 |
| 20260506041531 | 5 | 342 | 6.4 | 11.3 | 0.00 | 0.00 | 0.00 | 69 | 1005.8 |
| 20260506040050 | 6 | 344 | 6.4 | 11.3 | 0.00 | 0.00 | 0.00 | 68 | 1005.9 |